Welcome to the New NWS' Forecast!
Most changes are behind the scenes, but click here for differences you might notice.

Regional Weather Roundup (RWR)

Issued by Midland/Odessa (MAF)

                            
511 
ASUS44 KMAF 201301
RWRMAF
MIDLAND AREA WEATHER ROUNDUP
NATIONAL WEATHER SERVICE MIDLAND TX
800 AM CDT MON AUG 20 2018

...IN SOUTHWEST TEXAS AND SOUTHEAST NEW MEXICO...
  
CITY           SKY/WX    TMP DP  RH WIND       PRES   REMARKS
ALPINE         PTCLDY    64  60  88 N5        30.23R                  
ANDREWS        CLOUDY    68  68 100 E16       30.17S                  
ARTESIA        CLOUDY    66  66 100 N13       30.21R                  
BIG SPRING     CLOUDY    75  66  74 NE13      30.14R                  
CARLSBAD       MOCLDY    67  61  81 MISG      30.18R THUNDER          
DRYDEN           N/A     74  70  87 N8        30.03R                  
FORT STOCKTON  CLOUDY    74  63  68 SE5       30.10R                  
GUAD PASS      PTCLDY    64  62  93 NE31      30.23R                  
HOBBS          TSTM      66  63  88 CALM      30.20R                  
LAMESA         PTSUNNY   68  66  94 NE10      30.18R                  
MARFA            N/A     63  59  87 N9        30.21                   
MIDLAND AIRPK    N/A     77  67  72 N12       30.17R                  
MIDLAND INTL   CLOUDY    75  66  73 N17       30.16R                  
ODESSA         MOCLDY    72  67  84 NE16G24   30.17R                  
PECOS          CLOUDY    76  63  64 NE10      30.06R                  
PRESIDIO       FAIR      76  65  68 NW6       30.06R                  
SEMINOLE       CLOUDY    68  62  80 CALM      30.18R                  
SNYDER         CLOUDY    71  65  80 N12       30.13R                  
WINK           MOCLDY    75  66  73 NE20G25   30.12R                  
$$
...OTHER STATIONS IN TEXAS...
  
CITY           SKY/WX    TMP DP  RH WIND       PRES   REMARKS
ABILENE        MOSUNNY   75  64  68 N16       30.10R                  
AMARILLO       MOCLDY    63  54  72 NW14      30.22R                  
AUSTIN         CLOUDY    79  75  87 S6        29.99R                  
BROWNSVILLE    FAIR      81  78  91 SE6       29.96R                  
CORPUS CHRISTI MOSUNNY   79  79 100 SE6       29.96R                  
DALLAS FTW     PTSUNNY   81  70  69 W14       29.96R                  
DEL RIO        CLEAR     79  74  84 E13       29.96R                  
EL PASO        MOCLDY    78  55  44 N5        30.09R                  
HOUSTON INT    FAIR      83  78  85 SW6       29.99R                  
LUBBOCK        MOCLDY    67  57  70 N14       30.19R                  
SAN ANGELO     CLEAR     74  67  78 W5        30.07R                  
SAN ANTONIO    CLOUDY    79  72  79 SE9       30.01R                  
WACO           PTSUNNY   80  73  79 S7        29.99R                  
WICHITA FALLS  PTSUNNY   67  63  87 NW15      29.92R                  
$$
...OTHER LOCATIONS IN NEW MEXICO...
  
CITY           SKY/WX    TMP DP  RH WIND       PRES   REMARKS
ALAMOGORDO     CLEAR     75  54  46 N9        30.12S                  
ALBUQUERQUE    PTCLDY    66  52  60 E17       30.26R                  
CANNON AFB     MOCLDY    62  62 100 NE10      30.27R                  
CLOVIS         PTCLDY    60  55  83 NE7       30.28R                  
HOLLOMAN AFB   CLEAR     69  51  53 CALM        N/A                   
ROSWELL        MOCLDY    68  59  73 N8        30.21R                  
RUIDOSO          N/A     57  54  88 SE7       30.41R                  
SANTA FE       CLEAR     59  54  83 S9        30.34R                  
TRUTH OR CONSE CLEAR     72  56  57 N13G23    30.17R                  
TUCUMCARI      MOCLDY    63  59  87 CALM      30.24R                  
$$